[[{"header":{"parameterUnit":"m.s-1","parameterCategory":2,"la1":30.2991,"la2":30.254,"lo1":-89.0895,"lo2":-89.0444,"dy":0.0017,"dx":0.0017,"nx":28,"ny":28,"refTime":"2025-08-16T09:00:00:Z","depth":"0","parameterNumber":2,"parameterNumberName":"U-component_of_CURRENTS"},"data":[0,0,0,0,0,0,0,0,0,0,0,0,0,0,0,0,0,0,0,0,0,0,0,0,0,0,0,0,0,0,0,0,0,0,0,0,0,0,0,0,0,0,0,0,0,0,0,0,0,0,0,0,0,0,0,0,0,0,0.2848,0.2849,0,0.2852,0.2852,0.2852,0.2839,0.2839,0.2839,0.2839,0.2861,0.2862,0.2862,0,0,0,0,0,0,0,0,0,0,0,0,0,0.2813,0.2814,0.2848,0.2849,0.2849,0.2852,0.2852,0.2852,0.2839,0.2839,0.2839,0.2839,0.2861,0.2862,0.2862,0,0,0,0,0,0,0,0,0,0,0,0,0,0.282,0.2814,0.2848,0.2847,0.2847,0.2852,0.2852,0.2852,0.2839,0.2839,0.2839,0.2839,0.2861,0.2862,0.2862,0.2867,0,0,0.2865,0.2865,0,0,0,0,0,0,0,0,0.2819,0.282,0.2846,0.2847,0.2847,0.2849,0.2848,0.2859,0.2839,0.2837,0.2839,0.2839,0.2862,0.2862,0.2856,0.2868,0.2869,0.2865,0.2865,0.2866,0.2866,0,0,0,0,0,0,0,0.2819,0.282,0.2845,0.2847,0.2847,0.284,0.2841,0.2849,0.2846,0.2838,0.2838,0.2845,0.2861,0.2856,0.2857,0.2869,0.2865,0.2866,0.2866,0.2866,0.3002,0.3005,0,0,0,0,0,0,0.2828,0.282,0.2845,0.2846,0.2838,0.2841,0.2842,0.2845,0.2846,0.2847,0.2845,0.2845,0.2854,0.2856,0.2858,0.293,0.2866,0.2867,0.2867,0.2999,0.3002,0.3006,0,0,0,0,0,0,0.2827,0.283,0.2845,0.2837,0.2839,0.2843,0.2846,0.2845,0.2842,0.2852,0.2853,0.2844,0.2854,0.2857,0.2898,0.2929,0.2867,0.2868,0.2995,0.3,0.3004,0.3033,0,0,0,0,0,0,0.2826,0.283,0.2834,0.2837,0.284,0.2861,0.2846,0.2845,0.2849,0.2848,0.2852,0.2853,0.2855,0.2897,0.2899,0.2929,0.2868,0.2991,0.2997,0.3003,0.3028,0.3038,0.3046,0,0,0,0,0,0.2825,0.2837,0.2834,0.2838,0.2846,0.2863,0.2863,0.2863,0.2849,0.2857,0.2875,0.2853,0.2936,0.29,0.2901,0.2932,0.2988,0.2995,0.3002,0.3024,0.3036,0.3046,0,0,0,0,0,0,0.2819,0.2837,0.2835,0.2849,0.2861,0.2863,0.2875,0.2864,0.2879,0.2884,0.2879,0.2884,0.2945,0.294,0.29,0.2997,0.2964,0.2971,0.298,0.2991,0.3,0.2962,0.2869,0,0,0,0,0,0.2822,0.2837,0.2849,0.2861,0.2872,0.2869,0.2874,0.2876,0.289,0.2894,0.2897,0.2924,0.2974,0.2981,0.3021,0.3049,0.3056,0.308,0.3089,0.3096,0.3073,0.3155,0.3168,0.3029,0.3029,0.3028,0,0,0.282,0.2835,0.284,0.2861,0.287,0.289,0.2872,0.2891,0.2901,0.2897,0.2916,0.2959,0.2997,0.3053,0.3077,0.3045,0.314,0.3105,0.311,0.3082,0.3163,0.3177,0.3188,0.3033,0.3033,0.3032,0,0,0.2826,0.2842,0.2855,0.2877,0.2903,0.291,0.2916,0.2925,0.2925,0.2953,0.298,0.303,0.3069,0.3106,0.3131,0.3211,0.3203,0.3241,0.3229,0.331,0.3321,0.3331,0.3345,0.3356,0.3225,0.3225,0.3225,0,0.2821,0.2835,0.2861,0.2887,0.2903,0.2919,0.2934,0.2947,0.2964,0.2975,0.2969,0.307,0.3091,0.3172,0.3202,0.3225,0.3255,0.3175,0.3318,0.3328,0.3337,0.335,0.3361,0.3227,0.3227,0.3227,0.3227,0,0.2833,0.2853,0.287,0.2905,0.2931,0.2951,0.2981,0.3003,0.3005,0.3014,0.3085,0.3127,0.3178,0.3213,0.322,0.3312,0.3306,0.3334,0.3276,0.3352,0.3361,0.3373,0.323,0.323,0.3229,0.3228,0,0,0.2778,0.2858,0.2857,0.2878,0.2939,0.2955,0.3003,0.3034,0.3059,0.3089,0.3118,0.3202,0.3217,0.3248,0.3284,0.3332,0.3415,0.3348,0.3352,0.3335,0.3561,0.3382,0.3377,0.3483,0.3486,0.3488,0.3535,0,0.2764,0.2803,0.2851,0.2887,0.2909,0.2967,0.3005,0.305,0.3084,0.3126,0.3176,0.3233,0.3236,0.3271,0.3325,0.3418,0.3449,0.3396,0.3511,0.3513,0.3325,0.3386,0.3204,0.3216,0.3545,0.3547,0.3549,0,0.274,0.277,0.2799,0.2874,0.2888,0.2921,0.2989,0.303,0.3116,0.3146,0.3212,0.3256,0.3338,0.333,0.3474,0.345,0.349,0.3537,0.3541,0.3362,0.3355,0.3201,0.3224,0.3138,0.3565,0.3564,0.3563,0,0.2661,0.2728,0.2743,0.2771,0.2863,0.2889,0.2938,0.3027,0.307,0.3163,0.3211,0.3308,0.3364,0.3458,0.3523,0.3527,0.366,0.3687,0.355,0.3537,0.339,0.3357,0.3312,0.3765,0.3765,0.3765,0.3765,0,0.2618,0.263,0.2708,0.2719,0.2755,0.2836,0.2892,0.296,0.3057,0.3117,0.3212,0.327,0.3407,0.3488,0.3545,0.3559,0.3683,0.3533,0.3543,0.3392,0.3361,0.3283,0.3272,0.3767,0.3766,0.3766,0.3766,0,0.2535,0.2585,0.2614,0.2693,0.2724,0.2749,0.2869,0.2914,0.3016,0.3102,0.3134,0.3268,0.3347,0.3436,0.3573,0.3562,0.3492,0.3579,0.3342,0.332,0.3059,0.3057,0.2901,0.2828,0.3432,0.3428,0.3424,0,0.2498,0.2503,0.2579,0.2608,0.2646,0.2708,0.2762,0.2876,0.2937,0.309,0.3125,0.3213,0.3236,0.3331,0.3336,0.3357,0.3318,0.319,0.3141,0.299,0.3001,0.2923,0.2871,0.2974,0.2967,0.2962,0.2957,0,0.2426,0.2453,0.2478,0.2541,0.2592,0.2655,0.2739,0.2772,0.2907,0.297,0.3041,0.306,0.3098,0.3017,0.3008,0.3011,0.2994,0.3067,0.3021,0.2696,0.2507,0.2459,0.2966,0.2907,0.2912,0.2916,0.2919,0.2921,0.2365,0.2368,0.2414,0.247,0.2536,0.2584,0.258,0.2662,0.2711,0.2748,0.2866,0.282,0.2783,0.2716,0.2707,0.2526,0.2608,0.2445,0.2474,0.2423,0.2269,0.2598,0.2479,0.2481,0.2484,0.2485,0.2487,0,0.2268,0.2298,0.2348,0.24,0.2434,0.25,0.255,0.2507,0.2487,0.2545,0.2548,0.2425,0.2297,0.2258,0.2103,0.1994,0.1957,0.1927,0.1832,0.1833,0.2223,0.2117,0.178,0.178,0.178,0.178,0.178,0.1781,0.222,0.2221,0.2254,0.2283,0.2321,0.2289,0.2274,0.2218,0.2217,0.2097,0.2002,0.1988,0.1951,0.1817,0.1649,0.1609,0.1542,0.1396,0.1487,0.1812,0.1865,0.1915,0.1813,0.1417,0.1417,0.0994,0.0991,0.0988]},{"header":{"parameterUnit":"m.s-1","parameterCategory":2,"la1":30.2991,"la2":30.254,"lo1":-89.0895,"lo2":-89.0444,"dy":0.0017,"dx":0.0017,"nx":28,"ny":28,"refTime":"2025-08-16T09:00:00:Z","depth":"0","parameterNumber":3,"parameterNumberName":"V-component_of_CURRENTS"},"data":[0,0,0,0,0,0,0,0,0,0,0,0,0,0,0,0,0,0,0,0,0,0,0,0,0,0,0,0,0,0,0,0,0,0,0,0,0,0,0,0,0,0,0,0,0,0,0,0,0,0,0,0,0,0,0,0,0,0,0.0164,0.0163,0,0.0136,0.0136,0.0136,0.0113,0.0113,0.0113,0.0113,0.0068,0.0067,0.0066,0,0,0,0,0,0,0,0,0,0,0,0,0,0.0177,0.0177,0.0164,0.0163,0.0163,0.0136,0.0136,0.0136,0.0113,0.0113,0.0113,0.0112,0.0068,0.0067,0.0066,0,0,0,0,0,0,0,0,0,0,0,0,0,0.0163,0.0177,0.0164,0.0149,0.0147,0.0136,0.0136,0.0135,0.0113,0.0113,0.0113,0.0112,0.0068,0.0067,0.0066,0.0063,0,0,0.0061,0.006,0,0,0,0,0,0,0,0,0.0164,0.0162,0.0151,0.015,0.0148,0.0128,0.0124,0.011,0.0113,0.0126,0.0113,0.0112,0.0087,0.0084,0.0079,0.0061,0.0059,0.0061,0.006,0.0059,0.0059,0,0,0,0,0,0,0,0.0165,0.0163,0.0153,0.0151,0.0149,0.0137,0.0135,0.0121,0.0108,0.0125,0.0123,0.0121,0.0086,0.0081,0.0078,0.0058,0.0061,0.006,0.0059,0.0058,0.0052,0.0053,0,0,0,0,0,0,0.017,0.0164,0.0154,0.0152,0.0155,0.0137,0.0134,0.0135,0.0108,0.0104,0.0121,0.012,0.0083,0.008,0.0076,0.009,0.0059,0.0058,0.0057,0.0052,0.0053,0.0053,0,0,0,0,0,0,0.017,0.0169,0.0155,0.0157,0.0155,0.0137,0.0138,0.0134,0.013,0.0106,0.0101,0.012,0.0083,0.0078,0.0067,0.0088,0.0057,0.0056,0.0051,0.0052,0.0053,0.0107,0,0,0,0,0,0,0.0171,0.017,0.0171,0.0158,0.0155,0.0155,0.0138,0.0134,0.0129,0.0127,0.0104,0.0099,0.0082,0.007,0.0066,0.0085,0.0055,0.005,0.0051,0.0053,0.0104,0.0109,0.0114,0,0,0,0,0,0.0171,0.0181,0.0171,0.017,0.0157,0.0155,0.0153,0.0139,0.0129,0.0133,0.0114,0.01,0.0076,0.0069,0.0064,0.0084,0.0049,0.0051,0.0052,0.0102,0.0108,0.0114,0,0,0,0,0,0,0.0189,0.0179,0.0168,0.0174,0.0166,0.0152,0.0153,0.0142,0.013,0.0127,0.0103,0.0097,0.0097,0.0082,0.0074,0.0087,0.0063,0.0064,0.0102,0.0108,0.0113,0.0141,0.0053,0,0,0,0,0,0.0192,0.0197,0.0183,0.0188,0.0185,0.0168,0.0165,0.0155,0.0143,0.0138,0.0121,0.0107,0.0101,0.0097,0.0085,0.0088,0.0101,0.01,0.0105,0.0109,0.0129,0.017,0.0181,0.0059,0.0059,0.0059,0,0,0.0201,0.0196,0.0198,0.0191,0.0183,0.0191,0.0166,0.0165,0.0173,0.0135,0.0139,0.0121,0.0105,0.011,0.011,0.0099,0.0148,0.0111,0.0115,0.0133,0.0173,0.0185,0.0196,0.006,0.006,0.006,0,0,0.0225,0.0214,0.0227,0.0224,0.0215,0.0207,0.0209,0.0195,0.0191,0.0189,0.0169,0.0168,0.0147,0.0151,0.0148,0.0176,0.0172,0.0166,0.0217,0.0255,0.0266,0.0276,0.0301,0.0313,0.0171,0.0171,0.0171,0,0.0234,0.0248,0.0231,0.0243,0.0246,0.0219,0.0235,0.023,0.0215,0.022,0.0198,0.0195,0.0176,0.0203,0.0211,0.0191,0.0205,0.0193,0.0264,0.0274,0.0283,0.0307,0.0319,0.0174,0.0173,0.0173,0.0173,0,0.0269,0.0278,0.0287,0.0294,0.0294,0.0304,0.0294,0.0294,0.0281,0.0278,0.0291,0.027,0.0275,0.0266,0.0245,0.0299,0.0285,0.0265,0.0253,0.0299,0.032,0.0332,0.0178,0.0177,0.0176,0.0175,0,0,0.0297,0.0309,0.0313,0.0325,0.0323,0.033,0.0344,0.0355,0.038,0.036,0.0398,0.0383,0.0374,0.0371,0.0349,0.0378,0.0444,0.0352,0.0352,0.0384,0.0526,0.048,0.0488,0.0437,0.0439,0.0441,0.0513,0,0.033,0.0367,0.0361,0.0396,0.0414,0.0398,0.0421,0.0426,0.0427,0.0456,0.0444,0.0469,0.0414,0.0427,0.0445,0.0455,0.0479,0.0426,0.0471,0.0472,0.0431,0.0501,0.047,0.0528,0.0525,0.0526,0.0528,0,0.0367,0.0387,0.0427,0.0455,0.0462,0.0478,0.0511,0.053,0.0557,0.0561,0.0578,0.0569,0.061,0.0554,0.0602,0.0572,0.0556,0.0552,0.0554,0.0505,0.0448,0.0482,0.055,0.0477,0.0546,0.0544,0.0543,0,0.0401,0.0435,0.0469,0.0477,0.0503,0.0519,0.0538,0.0564,0.0603,0.0642,0.0687,0.07,0.0746,0.0731,0.0704,0.0669,0.0755,0.0704,0.0643,0.0638,0.0619,0.0609,0.0631,0.0738,0.0738,0.0737,0.0737,0,0.0441,0.047,0.0488,0.0508,0.0558,0.0562,0.0623,0.064,0.0698,0.078,0.0755,0.0832,0.0798,0.0826,0.0766,0.0754,0.0806,0.0679,0.0667,0.0633,0.0624,0.0563,0.0523,0.074,0.0739,0.0739,0.0738,0,0.0475,0.0486,0.0529,0.0562,0.0574,0.0614,0.0678,0.0734,0.0781,0.0894,0.0922,0.0972,0.1017,0.0956,0.0957,0.086,0.0789,0.0798,0.075,0.0731,0.0581,0.0545,0.0579,0.0554,0.0758,0.0757,0.0757,0,0.0497,0.0522,0.0567,0.0599,0.0615,0.067,0.0718,0.0768,0.0846,0.0991,0.1067,0.1134,0.1189,0.115,0.1003,0.0898,0.0814,0.0773,0.0689,0.0595,0.0548,0.0524,0.0498,0.0686,0.0685,0.0685,0.0684,0,0.0542,0.0554,0.0588,0.0652,0.0701,0.077,0.085,0.0924,0.1024,0.1131,0.1287,0.1342,0.1296,0.1184,0.1006,0.0912,0.0715,0.0751,0.0685,0.0531,0.0479,0.0441,0.0603,0.0677,0.0677,0.0678,0.0678,0.0679,0.0572,0.0603,0.0646,0.0708,0.0775,0.0874,0.0949,0.1057,0.1197,0.137,0.1425,0.1514,0.1323,0.1085,0.0941,0.0647,0.0683,0.0546,0.0524,0.0518,0.0456,0.0591,0.0621,0.0621,0.0622,0.0622,0.0622,0,0.0601,0.0638,0.0701,0.0783,0.0874,0.0898,0.1043,0.1131,0.1304,0.1446,0.1565,0.1498,0.127,0.1012,0.0623,0.0442,0.0382,0.0363,0.0328,0.0322,0.0474,0.0429,0.0381,0.0381,0.0381,0.0381,0.0381,0.0381,0.0616,0.0671,0.0702,0.0847,0.0921,0.1046,0.1135,0.1268,0.1384,0.1518,0.1551,0.1563,0.1356,0.0752,0.0362,0.0277,0.0182,0.0152,0.0137,0.0223,0.0238,0.0253,0.0202,0.0106,0.0106,-0.0014,-0.0016,-0.0017]}],[{"header":{"parameterUnit":"m.s-1","parameterCategory":2,"la1":30.2991,"la2":30.254,"lo1":-89.0895,"lo2":-89.0444,"dy":0.0017,"dx":0.0017,"nx":28,"ny":28,"refTime":"2025-08-16T09:00:00:Z","depth":"2","parameterNumber":2,"parameterNumberName":"U-component_of_CURRENTS"},"data":[0,0,0,0,0,0,0,0,0,0,0,0,0,0,0,0,0,0,0,0,0,0,0,0,0,0,0,0,0,0,0,0,0,0,0,0,0,0,0,0,0,0,0,0,0,0,0,0,0,0,0,0,0,0,0,0,0,0,0.1845,0.1845,0,0.1848,0.1848,0.1848,0.1842,0.1842,0.1842,0.1842,0.1844,0.1845,0.1845,0,0,0,0,0,0,0,0,0,0,0,0,0,0.1849,0.1848,0.1845,0.1845,0.1845,0.1848,0.1848,0.1848,0.1842,0.1842,0.1842,0.1842,0.1844,0.1845,0.1845,0,0,0,0,0,0,0,0,0,0,0,0,0,0.1848,0.1848,0.1845,0.1843,0.1843,0.1848,0.1848,0.1848,0.1842,0.1842,0.1842,0.1842,0.1844,0.1845,0.1845,0.1851,0,0,0.1846,0.1846,0,0,0,0,0,0,0,0,0.1848,0.1848,0.1843,0.1843,0.1843,0.1845,0.185,0.1849,0.1842,0.1842,0.1842,0.1841,0.1845,0.1845,0.1846,0.1852,0.1852,0.1846,0.1846,0.1846,0.1846,0,0,0,0,0,0,0,0.1848,0.1848,0.1846,0.1843,0.1843,0.1846,0.1846,0.185,0.1845,0.1842,0.1842,0.1843,0.1845,0.1845,0.1846,0.1852,0.1846,0.1846,0.1846,0.1846,0.1871,0.1872,0,0,0,0,0,0,0.1848,0.1848,0.1846,0.1846,0.1846,0.1847,0.1846,0.1844,0.1844,0.1844,0.1843,0.1842,0.1845,0.1845,0.1846,0.1889,0.1846,0.1846,0.1847,0.1871,0.1871,0.1872,0,0,0,0,0,0,0.1848,0.1848,0.1846,0.1848,0.1847,0.1847,0.1845,0.1844,0.1864,0.1845,0.1845,0.1865,0.1845,0.1845,0.1861,0.1887,0.1847,0.1847,0.187,0.1871,0.1872,0.1952,0,0,0,0,0,0,0.1848,0.1848,0.1854,0.1847,0.1847,0.1866,0.1845,0.1845,0.1864,0.1864,0.1864,0.1863,0.1845,0.1861,0.1861,0.1887,0.1847,0.187,0.1871,0.1871,0.1949,0.1956,0.1961,0,0,0,0,0,0.1848,0.185,0.1854,0.1855,0.1853,0.1867,0.1868,0.1866,0.1866,0.1882,0.1876,0.1864,0.1866,0.1862,0.1862,0.1889,0.1869,0.187,0.1871,0.1946,0.1954,0.1961,0,0,0,0,0,0,0.1855,0.1849,0.1854,0.1855,0.1871,0.1866,0.1873,0.1883,0.1892,0.1888,0.1877,0.1876,0.1899,0.188,0.1875,0.1895,0.1863,0.1865,0.192,0.1927,0.1933,0.1947,0.1847,0,0,0,0,0,0.1861,0.1862,0.1866,0.1873,0.1877,0.1885,0.1893,0.1895,0.1898,0.1903,0.1903,0.1896,0.1901,0.1904,0.19,0.1917,0.1926,0.193,0.1936,0.1941,0.1951,0.2007,0.2021,0.1875,0.1875,0.1875,0,0,0.1868,0.1864,0.1867,0.1876,0.1881,0.1893,0.1889,0.1903,0.1919,0.1901,0.1921,0.1924,0.1911,0.1927,0.1935,0.1917,0.1983,0.1943,0.1948,0.1954,0.201,0.2025,0.2038,0.1876,0.1876,0.1876,0,0,0.1874,0.1878,0.1879,0.1889,0.1901,0.1909,0.1923,0.1932,0.1942,0.1964,0.1955,0.1979,0.1976,0.198,0.1979,0.2018,0.2018,0.2012,0.2055,0.2111,0.2124,0.2136,0.2156,0.2169,0.2011,0.2011,0.2011,0,0.1886,0.1882,0.1887,0.1889,0.1898,0.1921,0.1932,0.1949,0.1967,0.1984,0.1975,0.2009,0.2002,0.2039,0.2048,0.2036,0.2057,0.2033,0.2123,0.2134,0.2145,0.2163,0.2177,0.2015,0.2015,0.2014,0.2014,0,0.1883,0.189,0.1892,0.1902,0.192,0.1933,0.1953,0.1982,0.2001,0.202,0.2068,0.2072,0.2094,0.2097,0.2085,0.2156,0.2142,0.2132,0.2112,0.2166,0.218,0.2192,0.2021,0.2019,0.2018,0.2017,0,0,0.1882,0.1889,0.1892,0.1897,0.1925,0.1935,0.1973,0.2015,0.2045,0.2081,0.2131,0.2155,0.2178,0.2179,0.2181,0.2227,0.2317,0.2217,0.2218,0.2252,0.2429,0.2294,0.2294,0.2337,0.234,0.2342,0.2405,0,0.1882,0.1881,0.1894,0.1914,0.1915,0.1952,0.1983,0.2026,0.2068,0.2124,0.2167,0.2213,0.2202,0.223,0.2278,0.2307,0.2356,0.23,0.2359,0.236,0.2247,0.2307,0.2106,0.2134,0.2417,0.2419,0.2421,0,0.1867,0.187,0.188,0.1906,0.1912,0.1937,0.1996,0.2035,0.2121,0.2153,0.2228,0.2267,0.2347,0.2332,0.2428,0.2398,0.2426,0.2445,0.2448,0.2305,0.2249,0.2127,0.2147,0.2442,0.244,0.2438,0.2437,0,0.1839,0.1859,0.1866,0.1873,0.1912,0.1935,0.1976,0.2048,0.2093,0.22,0.2249,0.2337,0.2386,0.2458,0.2495,0.2482,0.2593,0.2572,0.2477,0.2467,0.2295,0.2264,0.2659,0.2659,0.2659,0.2659,0.2658,0,0.1818,0.1824,0.1853,0.1856,0.1878,0.192,0.1972,0.2022,0.2119,0.2174,0.2275,0.2329,0.2428,0.2496,0.2532,0.2532,0.2624,0.2497,0.2485,0.2311,0.2282,0.2543,0.2529,0.2661,0.266,0.266,0.2659,0,0.1778,0.1799,0.1807,0.1847,0.1862,0.1885,0.1968,0.2012,0.2105,0.2189,0.2235,0.2347,0.2412,0.2489,0.258,0.2547,0.2583,0.2563,0.2331,0.2288,0.2411,0.24,0.2465,0.2461,0.2457,0.2454,0.2452,0,0.1747,0.1747,0.1788,0.1813,0.1835,0.188,0.1914,0.1997,0.2047,0.218,0.2215,0.2317,0.2339,0.2412,0.2389,0.241,0.2514,0.2231,0.2158,0.2415,0.2397,0.2391,0.2385,0.1967,0.1961,0.1956,0.1952,0,0.1698,0.1723,0.1741,0.1773,0.1808,0.1836,0.1892,0.1919,0.2017,0.2069,0.2121,0.2157,0.22,0.2103,0.2121,0.2115,0.2205,0.2123,0.2493,0.2027,0.1946,0.1928,0.1939,0.1907,0.1912,0.1915,0.1918,0.1919,0.1667,0.1666,0.1695,0.1727,0.1772,0.1779,0.1759,0.1807,0.1828,0.1865,0.1954,0.1927,0.194,0.1832,0.1789,0.1757,0.1907,0.184,0.1857,0.1879,0.179,0.1705,0.1604,0.1606,0.1609,0.1611,0.1613,0,0.1606,0.1624,0.1651,0.1664,0.167,0.1714,0.173,0.1677,0.1636,0.1684,0.1684,0.1525,0.1455,0.1498,0.1356,0.1338,0.1348,0.1303,0.1311,0.1355,0.1394,0.1282,0.0961,0.0959,0.0957,0.0955,0,0,0.1584,0.1572,0.1579,0.1553,0.1568,0.1513,0.1494,0.1423,0.1415,0.1334,0.13,0.1392,0.1435,0.1182,0.114,0.1028,0.1191,0.0986,0.1507,0.156,0.1597,0.1696,0.1571,0,0,0,0,0]},{"header":{"parameterUnit":"m.s-1","parameterCategory":2,"la1":30.2991,"la2":30.254,"lo1":-89.0895,"lo2":-89.0444,"dy":0.0017,"dx":0.0017,"nx":28,"ny":28,"refTime":"2025-08-16T09:00:00:Z","depth":"2","parameterNumber":3,"parameterNumberName":"V-component_of_CURRENTS"},"data":[0,0,0,0,0,0,0,0,0,0,0,0,0,0,0,0,0,0,0,0,0,0,0,0,0,0,0,0,0,0,0,0,0,0,0,0,0,0,0,0,0,0,0,0,0,0,0,0,0,0,0,0,0,0,0,0,0,0,0.0113,0.0113,0,0.0084,0.0083,0.0083,0.0066,0.0065,0.0065,0.0065,0.0034,0.0033,0.0032,0,0,0,0,0,0,0,0,0,0,0,0,0,0.013,0.013,0.0113,0.0113,0.0113,0.0084,0.0083,0.0083,0.0066,0.0065,0.0065,0.0065,0.0034,0.0033,0.0032,0,0,0,0,0,0,0,0,0,0,0,0,0,0.0114,0.013,0.0113,0.01,0.0099,0.0084,0.0083,0.0083,0.0066,0.0065,0.0065,0.0065,0.0034,0.0033,0.0032,0.0028,0,0,0.0028,0.0028,0,0,0,0,0,0,0,0,0.0115,0.0113,0.0103,0.0101,0.01,0.0078,0.0078,0.0064,0.0066,0.0078,0.0065,0.0065,0.0048,0.0046,0.0041,0.0026,0.0025,0.0028,0.0028,0.0027,0.0027,0,0,0,0,0,0,0,0.0116,0.0114,0.0102,0.0102,0.01,0.0087,0.0085,0.0075,0.0065,0.0077,0.0076,0.0072,0.0047,0.0042,0.004,0.0024,0.0028,0.0027,0.0027,0.0026,0.0021,0.0021,0,0,0,0,0,0,0.0121,0.0116,0.0103,0.0101,0.0107,0.0087,0.0085,0.0085,0.0065,0.0061,0.0073,0.0072,0.0044,0.0041,0.0039,0.0051,0.0027,0.0026,0.0025,0.002,0.0021,0.0021,0,0,0,0,0,0,0.0121,0.012,0.0104,0.0107,0.0104,0.0087,0.0088,0.0085,0.0079,0.0061,0.0058,0.007,0.0044,0.004,0.0032,0.0049,0.0026,0.0024,0.0019,0.002,0.0021,0.0064,0,0,0,0,0,0,0.0122,0.0121,0.0122,0.0108,0.0104,0.01,0.0088,0.0084,0.0077,0.0076,0.0058,0.0055,0.0044,0.0033,0.003,0.0047,0.0024,0.0019,0.002,0.0021,0.0062,0.0066,0.0069,0,0,0,0,0,0.0123,0.0129,0.0122,0.012,0.0107,0.01,0.0098,0.0085,0.0077,0.0079,0.0065,0.0055,0.0038,0.0033,0.0029,0.0046,0.0018,0.002,0.0021,0.006,0.0065,0.0069,0,0,0,0,0,0,0.0134,0.0127,0.0119,0.0122,0.0113,0.0098,0.0098,0.0087,0.0076,0.0075,0.0056,0.0053,0.0053,0.0041,0.0036,0.0047,0.0029,0.003,0.006,0.0065,0.0069,0.0081,0.0023,0,0,0,0,0,0.0138,0.0142,0.0129,0.013,0.0129,0.0113,0.0108,0.0099,0.0088,0.0083,0.0069,0.0059,0.0056,0.0053,0.0045,0.0047,0.0038,0.0057,0.0061,0.0065,0.0073,0.0073,0.0078,0.0025,0.0025,0.0025,0,0,0.0142,0.0138,0.014,0.0133,0.0127,0.0131,0.011,0.0107,0.0112,0.0081,0.0084,0.007,0.0058,0.0063,0.0063,0.0056,0.0074,0.0066,0.0069,0.0076,0.0075,0.008,0.0084,0.0026,0.0026,0.0026,0,0,0.0158,0.0151,0.0161,0.0159,0.0151,0.0144,0.0144,0.013,0.0127,0.0123,0.0108,0.0102,0.0091,0.009,0.0088,0.0108,0.0093,0.0107,0.014,0.014,0.0144,0.0148,0.014,0.0143,0.0111,0.0112,0.0112,0,0.0163,0.0173,0.0162,0.0172,0.0175,0.0153,0.0166,0.016,0.0144,0.0147,0.0131,0.0124,0.0108,0.0125,0.0131,0.0118,0.0112,0.0123,0.0146,0.0149,0.0152,0.0143,0.0146,0.0114,0.0114,0.0113,0.0113,0,0.0186,0.0194,0.0201,0.021,0.0212,0.0218,0.0211,0.0212,0.0202,0.0194,0.02,0.0177,0.0177,0.0171,0.0156,0.0176,0.0162,0.0149,0.0135,0.016,0.0149,0.015,0.0117,0.0116,0.0115,0.0115,0,0,0.0201,0.0215,0.0219,0.0233,0.0233,0.0241,0.0254,0.0262,0.0281,0.0258,0.0282,0.0263,0.0248,0.0244,0.0226,0.0223,0.0231,0.0199,0.0197,0.0193,0.0228,0.0194,0.0192,0.0223,0.0224,0.0224,0.021,0,0.0223,0.0253,0.0253,0.0285,0.0301,0.0295,0.0316,0.0321,0.032,0.0336,0.0314,0.0328,0.0278,0.0287,0.0272,0.0248,0.0239,0.0236,0.0202,0.0201,0.017,0.0194,0.0207,0.0193,0.0211,0.0212,0.0212,0,0.0248,0.0266,0.0299,0.0333,0.0341,0.0357,0.0393,0.041,0.0424,0.0426,0.0425,0.0407,0.0402,0.0359,0.032,0.0321,0.0279,0.0251,0.0249,0.0205,0.0171,0.0171,0.0196,0.0215,0.0214,0.0214,0.0214,0,0.027,0.0301,0.0331,0.034,0.0371,0.0392,0.0414,0.0436,0.0475,0.0492,0.0523,0.0491,0.0499,0.0441,0.0366,0.0351,0.0321,0.0292,0.0219,0.0215,0.0214,0.0209,0.0266,0.0266,0.0266,0.0266,0.0266,0,0.0295,0.0322,0.0345,0.0362,0.0411,0.0426,0.0484,0.0501,0.0552,0.0613,0.0576,0.0612,0.0521,0.0488,0.0403,0.0317,0.0346,0.0232,0.0214,0.0227,0.0224,0.0232,0.0228,0.0266,0.0266,0.0266,0.0266,0,0.0316,0.0328,0.0368,0.0406,0.0421,0.0461,0.0537,0.0592,0.0628,0.071,0.0728,0.0716,0.0664,0.0564,0.0474,0.0376,0.0293,0.0254,0.0268,0.0252,0.0175,0.0174,0.0173,0.0172,0.0171,0.017,0.0169,0,0.0329,0.035,0.0398,0.0433,0.0452,0.0512,0.0567,0.0623,0.0694,0.0775,0.0828,0.0803,0.0778,0.0623,0.0459,0.0307,0.029,0.0214,0.0179,0.0185,0.0168,0.0169,0.0169,0.0194,0.0193,0.0193,0.0193,0,0.0357,0.0371,0.0405,0.0473,0.0531,0.0608,0.0692,0.0757,0.0841,0.0894,0.0955,0.0939,0.0797,0.0636,0.0427,0.0322,0.0235,0.0199,0.0225,0.0208,0.0202,0.0186,0.0186,0.0189,0.019,0.019,0.019,0.019,0.0379,0.0406,0.0452,0.0521,0.0599,0.0705,0.0769,0.0856,0.095,0.1031,0.102,0.0983,0.0827,0.0537,0.0374,0.0201,0.0204,0.0134,0.0138,0.0141,0.0138,0.013,0.0103,0.0103,0.0103,0.0103,0.0103,0,0.0403,0.0441,0.0504,0.0596,0.0694,0.0726,0.0859,0.0916,0.1005,0.1048,0.1059,0.0886,0.0723,0.0551,0.0292,0.0131,0.0126,0.0081,0.0118,0.0123,0.0126,0.0124,0.0085,0.0084,0.0084,0.0083,0,0,0.042,0.0475,0.0506,0.0658,0.0734,0.0858,0.0928,0.099,0.1036,0.1034,0.1003,0.096,0.0764,0.0569,0.037,0.0232,0.0209,0.0198,0.0228,0.0301,0.0306,0.0173,0.0176,0,0,0,0,0]}],[{"header":{"parameterUnit":"m.s-1","parameterCategory":2,"la1":30.2991,"la2":30.254,"lo1":-89.0895,"lo2":-89.0444,"dy":0.0017,"dx":0.0017,"nx":28,"ny":28,"refTime":"2025-08-16T09:00:00:Z","depth":"4","parameterNumber":2,"parameterNumberName":"U-component_of_CURRENTS"},"data":[0,0,0,0,0,0,0,0,0,0,0,0,0,0,0,0,0,0,0,0,0,0,0,0,0,0,0,0,0,0,0,0,0,0,0,0,0,0,0,0,0,0,0,0,0,0,0,0,0,0,0,0,0,0,0,0,0,0,0.0988,0.0988,0,0.1004,0.1004,0.1004,0.1026,0.1026,0.1026,0.1027,0.1029,0.1028,0.1028,0,0,0,0,0,0,0,0,0,0,0,0,0,0.0994,0.0994,0.0988,0.0988,0.0988,0.1004,0.1004,0.1004,0.1025,0.1026,0.1026,0.1027,0.1029,0.1028,0.1028,0,0,0,0,0,0,0,0,0,0,0,0,0,0.0999,0.0994,0.0988,0.1001,0.1002,0.1004,0.1004,0.1004,0.1025,0.1026,0.1026,0.1027,0.1029,0.1028,0.1028,0.1016,0,0,0.1027,0.1027,0,0,0,0,0,0,0,0,0.0999,0.0999,0.0999,0.1,0.1001,0.1013,0.1007,0.1007,0.1025,0.1017,0.1027,0.1027,0.1022,0.1022,0.1024,0.1016,0.1016,0.1027,0.1027,0.1026,0.1026,0,0,0,0,0,0,0,0.0999,0.0999,0.0995,0.0999,0.1,0.1012,0.1013,0.1008,0.1016,0.1017,0.1019,0.102,0.1022,0.1025,0.1024,0.1016,0.1027,0.1027,0.1026,0.1026,0.1056,0.1057,0,0,0,0,0,0,0.0995,0.0998,0.0994,0.0995,0.1001,0.1011,0.1012,0.1009,0.1017,0.1018,0.102,0.1021,0.1025,0.1025,0.1025,0.1063,0.1026,0.1026,0.1026,0.1055,0.1056,0.1057,0,0,0,0,0,0,0.0994,0.0994,0.0993,0.0997,0.0998,0.101,0.1006,0.1009,0.1033,0.1018,0.102,0.1044,0.1025,0.1025,0.1033,0.1062,0.1026,0.1026,0.1053,0.1055,0.1056,0.1107,0,0,0,0,0,0,0.0995,0.0994,0.1005,0.0997,0.0997,0.1002,0.1006,0.1009,0.1032,0.1034,0.1039,0.1039,0.1026,0.1034,0.1033,0.106,0.1025,0.1052,0.1054,0.1056,0.1104,0.111,0.1115,0,0,0,0,0,0.0995,0.1,0.1005,0.1005,0.1007,0.1002,0.1004,0.1015,0.1033,0.1041,0.1046,0.104,0.1045,0.1034,0.1032,0.1061,0.1051,0.1054,0.1056,0.1102,0.1109,0.1115,0,0,0,0,0,0,0.1007,0.1003,0.1008,0.1012,0.1012,0.1006,0.1022,0.1029,0.1042,0.1053,0.1044,0.1043,0.1065,0.1053,0.1041,0.1076,0.1051,0.1053,0.1086,0.1093,0.1098,0.1104,0.1025,0,0,0,0,0,0.1014,0.1022,0.1013,0.1021,0.1024,0.103,0.1038,0.1041,0.1044,0.1053,0.1055,0.1062,0.107,0.1074,0.1074,0.1086,0.1084,0.1106,0.1112,0.1117,0.1121,0.115,0.1159,0.1064,0.1064,0.1064,0,0,0.1021,0.1022,0.1027,0.1025,0.1032,0.1032,0.1037,0.105,0.1061,0.1049,0.1075,0.1081,0.1078,0.1095,0.1105,0.1091,0.1141,0.112,0.1124,0.1126,0.1153,0.1163,0.1171,0.1066,0.1066,0.1065,0,0,0.1029,0.1041,0.1047,0.1048,0.1057,0.1054,0.1063,0.1067,0.1086,0.1103,0.1105,0.1125,0.1134,0.1136,0.1139,0.1175,0.1171,0.1185,0.1216,0.1245,0.1253,0.126,0.126,0.1267,0.1186,0.1186,0.1186,0,0.1045,0.1041,0.1049,0.1052,0.1056,0.1066,0.1068,0.1085,0.1093,0.1114,0.112,0.1157,0.1154,0.1179,0.1196,0.1189,0.1198,0.1191,0.1252,0.1259,0.1266,0.1265,0.1272,0.1189,0.1189,0.1188,0.1188,0,0.1042,0.1052,0.1057,0.1063,0.1068,0.1073,0.1085,0.1107,0.1136,0.1154,0.12,0.1202,0.1226,0.1234,0.1228,0.1275,0.1264,0.1258,0.1236,0.1279,0.1274,0.1281,0.1193,0.1192,0.1191,0.119,0,0,0.1045,0.1054,0.106,0.106,0.1074,0.107,0.1103,0.1127,0.116,0.1194,0.1237,0.1266,0.1289,0.1293,0.1294,0.1317,0.1368,0.1315,0.1316,0.1316,0.1422,0.1323,0.1319,0.1384,0.1386,0.1387,0.1398,0,0.1044,0.1047,0.1054,0.1058,0.1056,0.1079,0.1101,0.1132,0.1177,0.1223,0.1263,0.1306,0.1306,0.1331,0.1357,0.1372,0.1389,0.1365,0.138,0.138,0.1287,0.1325,0.1392,0.1402,0.1404,0.1405,0.1405,0,0.1032,0.1036,0.1043,0.1049,0.1052,0.1063,0.1105,0.1128,0.1202,0.1244,0.1307,0.1345,0.1399,0.139,0.1443,0.1434,0.1436,0.1437,0.1438,0.1331,0.1292,0.1353,0.1416,0.1416,0.1415,0.1414,0.1413,0,0.101,0.1021,0.1027,0.1031,0.1046,0.1067,0.1084,0.1146,0.118,0.1274,0.1317,0.1387,0.1431,0.1461,0.1486,0.1478,0.153,0.1512,0.1414,0.1406,0.147,0.1462,0.154,0.154,0.154,0.154,0.154,0,0.0988,0.0992,0.1023,0.1024,0.1032,0.1057,0.1094,0.1128,0.1201,0.1248,0.1334,0.1377,0.1459,0.1502,0.1507,0.1482,0.155,0.1423,0.1408,0.1488,0.1483,0.1473,0.1465,0.154,0.154,0.154,0.154,0,0.0952,0.0978,0.0978,0.1009,0.102,0.1029,0.1082,0.1107,0.1191,0.1257,0.1295,0.1394,0.1452,0.15,0.1545,0.1494,0.1486,0.1453,0.1531,0.152,0.1333,0.1327,0.134,0.1337,0.1334,0.1332,0.133,0,0.0929,0.0932,0.0962,0.0958,0.0975,0.1004,0.1019,0.1095,0.1132,0.1254,0.1274,0.1371,0.1429,0.1409,0.1461,0.1454,0.1432,0.1405,0.137,0.1331,0.1316,0.1315,0.1313,0.1325,0.1324,0.1324,0.1323,0,0.0882,0.0908,0.091,0.0901,0.0915,0.093,0.0971,0.0995,0.1095,0.1182,0.1236,0.1271,0.1321,0.1353,0.136,0.135,0.1416,0.1376,0.1381,0.1348,0.1313,0.1301,0.1302,0.1313,0.1315,0.1316,0.1316,0,0.0854,0.0838,0.0843,0.0823,0.0835,0.084,0.0881,0.0923,0.0974,0.1119,0.1136,0.1231,0.1322,0.1298,0.1306,0.1293,0.1262,0.1204,0.1217,0.1228,0.1185,0.1124,0.1058,0,0,0,0,0,0.0816,0.078,0.0753,0.0732,0.0742,0.0761,0.0826,0.0882,0.1001,0.1009,0.1073,0.112,0.1145,0.1185,0.1147,0.1233,0.1255,0.1179,0.1193,0.126,0.1271,0.1229,0,0,0,0,0,0,0.0783,0.0765,0.0727,0.0659,0.064,0.0658,0.071,0.0797,0.0813,0.0936,0.0958,0.1038,0.1078,0.1161,0.1124,0.1133,0.1112,0.1234,0.123,0.1253,0.1263,0.1272,0.1234,0,0,0,0,0]},{"header":{"parameterUnit":"m.s-1","parameterCategory":2,"la1":30.2991,"la2":30.254,"lo1":-89.0895,"lo2":-89.0444,"dy":0.0017,"dx":0.0017,"nx":28,"ny":28,"refTime":"2025-08-16T09:00:00:Z","depth":"4","parameterNumber":3,"parameterNumberName":"V-component_of_CURRENTS"},"data":[0,0,0,0,0,0,0,0,0,0,0,0,0,0,0,0,0,0,0,0,0,0,0,0,0,0,0,0,0,0,0,0,0,0,0,0,0,0,0,0,0,0,0,0,0,0,0,0,0,0,0,0,0,0,0,0,0,0,0.0097,0.0097,0,0.0082,0.0082,0.0082,0.0077,0.0077,0.0077,0.0077,0.0069,0.0069,0.0069,0,0,0,0,0,0,0,0,0,0,0,0,0,0.0108,0.0108,0.0097,0.0097,0.0097,0.0082,0.0082,0.0082,0.0077,0.0077,0.0077,0.0077,0.0069,0.0069,0.0069,0,0,0,0,0,0,0,0,0,0,0,0,0,0.01,0.0108,0.0097,0.0092,0.0091,0.0082,0.0082,0.0082,0.0077,0.0077,0.0077,0.0077,0.0069,0.0069,0.0069,0.0068,0,0,0.0068,0.0068,0,0,0,0,0,0,0,0,0.01,0.01,0.0093,0.0092,0.0091,0.008,0.0082,0.0077,0.0077,0.0084,0.0077,0.0077,0.0073,0.0072,0.0071,0.0068,0.0068,0.0068,0.0068,0.0068,0.0068,0,0,0,0,0,0,0,0.0101,0.01,0.0092,0.0092,0.0091,0.0085,0.0084,0.0081,0.008,0.0083,0.0082,0.0079,0.0073,0.0071,0.0071,0.0068,0.0068,0.0068,0.0068,0.0068,0.0064,0.0064,0,0,0,0,0,0,0.0101,0.0101,0.0093,0.0092,0.0094,0.0084,0.0084,0.0085,0.008,0.0078,0.0079,0.0079,0.0072,0.0071,0.0071,0.0077,0.0068,0.0068,0.0067,0.0064,0.0064,0.0064,0,0,0,0,0,0,0.0102,0.0101,0.0093,0.0095,0.0093,0.0084,0.0086,0.0085,0.0084,0.0076,0.0075,0.008,0.0072,0.0071,0.0071,0.0077,0.0067,0.0067,0.0064,0.0064,0.0064,0.0086,0,0,0,0,0,0,0.0102,0.0101,0.0103,0.0095,0.0093,0.0091,0.0086,0.0084,0.0081,0.0081,0.0077,0.0076,0.0072,0.0072,0.0071,0.0076,0.0067,0.0064,0.0064,0.0064,0.0085,0.0087,0.0088,0,0,0,0,0,0.0103,0.0106,0.0104,0.0102,0.0096,0.0091,0.009,0.0084,0.0081,0.0083,0.008,0.0076,0.0072,0.0072,0.0071,0.0076,0.0064,0.0064,0.0064,0.0084,0.0086,0.0088,0,0,0,0,0,0,0.0108,0.0105,0.0103,0.0104,0.0099,0.009,0.009,0.0085,0.0084,0.0086,0.0078,0.0077,0.0079,0.0073,0.0073,0.0074,0.0067,0.0067,0.0082,0.0084,0.0085,0.0093,0.0067,0,0,0,0,0,0.0111,0.0115,0.0107,0.0109,0.0107,0.0099,0.0097,0.0093,0.0089,0.0089,0.0084,0.008,0.0078,0.0078,0.0075,0.0077,0.0059,0.0079,0.008,0.0081,0.0086,0.0062,0.0062,0.0065,0.0065,0.0065,0,0,0.0113,0.0112,0.0114,0.0111,0.0107,0.011,0.0098,0.0097,0.0102,0.0088,0.0093,0.0085,0.008,0.0082,0.0082,0.0079,0.0069,0.0082,0.0083,0.0087,0.0062,0.0062,0.0061,0.0065,0.0065,0.0065,0,0,0.012,0.012,0.0126,0.0125,0.0121,0.0118,0.0119,0.0111,0.0111,0.0111,0.0104,0.0098,0.0095,0.0092,0.0091,0.0098,0.0077,0.0096,0.0112,0.0088,0.0088,0.0087,0.0056,0.0053,0.0098,0.0098,0.0098,0,0.0123,0.0131,0.0126,0.0131,0.0135,0.0124,0.0132,0.013,0.0123,0.0126,0.0116,0.0108,0.0101,0.0105,0.0108,0.0102,0.0082,0.0107,0.009,0.0089,0.0088,0.0057,0.0053,0.0099,0.0099,0.0099,0.0099,0,0.0134,0.0142,0.0145,0.0153,0.0156,0.0161,0.0158,0.016,0.0156,0.0151,0.015,0.0134,0.0131,0.0125,0.012,0.0114,0.01,0.0094,0.0086,0.0089,0.0056,0.0051,0.0101,0.01,0.01,0.01,0,0,0.014,0.0152,0.0154,0.0167,0.017,0.0176,0.0185,0.0193,0.0204,0.0186,0.0191,0.018,0.0167,0.0164,0.015,0.0129,0.0101,0.0112,0.011,0.0083,0.0042,0.0047,0.0042,0.0091,0.0091,0.0091,0.0018,0,0.0152,0.0172,0.0174,0.0198,0.0209,0.0211,0.0225,0.023,0.0228,0.0228,0.0205,0.0204,0.0184,0.0182,0.0157,0.0119,0.0091,0.0121,0.0042,0.0039,0.0045,0.0038,0.0089,0.0015,0.0014,0.0013,0.0012,0,0.0163,0.0178,0.0202,0.0231,0.0237,0.0251,0.0277,0.029,0.0288,0.0284,0.0271,0.0249,0.0222,0.0199,0.0129,0.0149,0.0099,0.0061,0.0057,0.0054,0.0037,0.0012,0.0003,0.0004,0.0005,0.0005,0.0006,0,0.0173,0.0199,0.0223,0.0231,0.0258,0.0276,0.0296,0.0308,0.0329,0.0321,0.0322,0.0282,0.0263,0.0198,0.0122,0.0125,0.0032,0.0026,-0.0021,-0.0022,-0.0015,-0.0013,-0.0031,-0.0031,-0.0031,-0.0031,-0.0031,0,0.0185,0.0206,0.0232,0.0246,0.0286,0.03,0.0344,0.0354,0.037,0.0392,0.0355,0.0347,0.0262,0.0199,0.0126,0.0039,0.0033,-0.0019,-0.0038,-0.0006,-0.0002,-0.0019,-0.0017,-0.0034,-0.0033,-0.0032,-0.0032,0,0.0191,0.0206,0.0238,0.0274,0.0291,0.0323,0.0381,0.0411,0.0422,0.0443,0.0442,0.0392,0.0315,0.022,0.0109,0.0051,-0.0036,-0.0069,-0.0033,-0.0048,-0.0078,-0.0074,-0.0124,-0.0125,-0.0125,-0.0125,-0.0126,0,0.0195,0.0211,0.0258,0.0288,0.0307,0.036,0.0401,0.0434,0.0462,0.0469,0.0472,0.041,0.0363,0.0207,0.0107,-0.0035,-0.0053,-0.0103,-0.0084,-0.0074,-0.0087,-0.0082,-0.0078,-0.0126,-0.0126,-0.0126,-0.0126,0,0.0206,0.0221,0.0248,0.0305,0.0352,0.041,0.0463,0.0484,0.0519,0.0524,0.0499,0.0424,0.0333,0.0212,0.0101,-0.0001,-0.007,-0.0107,-0.0107,-0.0089,-0.0077,-0.0088,-0.0083,-0.0127,-0.0127,-0.0127,-0.0127,0,0.0215,0.0233,0.0269,0.0323,0.0383,0.044,0.047,0.0502,0.0531,0.0532,0.0518,0.0428,0.0374,0.0228,0.0125,0.0029,0.0007,-0.0024,-0.0029,-0.0029,0.0025,0.0057,0.0031,0,0,0,0,0,0.0224,0.0245,0.0289,0.0346,0.0406,0.0445,0.0504,0.0529,0.055,0.0539,0.0534,0.0452,0.0311,0.0244,0.015,0.0113,-0.0016,-0.0001,-0.0056,-0.0133,-0.0132,-0.0083,0,0,0,0,0,0,0.023,0.0264,0.0283,0.0356,0.04,0.047,0.051,0.0529,0.0521,0.0525,0.0449,0.0425,0.0282,0.0363,0.0145,0.0117,0.0069,-0.0065,-0.0067,-0.0134,-0.0133,-0.0132,-0.0082,0,0,0,0,0]}]]